TimeEDT,TemperatureF,Dew PointF,Humidity,Sea Level PressureIn,VisibilityMPH,Wind Direction,Wind SpeedMPH,Gust SpeedMPH,PrecipitationIn,Events,Conditions,WindDirDegrees,DateUTC
12:29 AM,42.8,39.2,87,30.24,4.0,NNE,4.6,-,0.03,Rain,Light Rain,30,2013-03-30 04:29:00
12:53 AM,42.1,39.9,92,30.23,4.0,NNE,4.6,-,0.03,Rain,Light Rain,30,2013-03-30 04:53:00
1:22 AM,42.8,41.0,93,30.23,4.0,North,3.5,-,0.03,Rain,Light Rain,360,2013-03-30 05:22:00
1:53 AM,42.1,41.0,96,30.23,3.0,Calm,Calm,-,0.06,Rain,Light Rain,0,2013-03-30 05:53:00
2:32 AM,42.8,41.0,93,30.22,4.0,NNE,3.5,-,0.01,Rain,Light Rain,20,2013-03-30 06:32:00
2:53 AM,42.1,39.9,92,30.22,4.0,North,3.5,-,0.03,Rain,Light Rain,10,2013-03-30 06:53:00
3:53 AM,42.1,39.9,92,30.21,4.0,NNE,6.9,-,0.00,,Overcast,20,2013-03-30 07:53:00
4:53 AM,42.1,39.9,92,30.20,4.0,NE,4.6,-,N/A,,Overcast,50,2013-03-30 08:53:00
5:53 AM,42.1,39.9,92,30.20,4.0,NNE,6.9,-,N/A,,Overcast,30,2013-03-30 09:53:00
6:25 AM,42.8,39.2,87,30.19,2.5,NE,4.6,-,N/A,,Overcast,40,2013-03-30 10:25:00
6:53 AM,42.1,39.9,92,30.20,2.0,NE,4.6,-,N/A,,Overcast,40,2013-03-30 10:53:00
7:48 AM,42.8,39.2,87,30.21,1.5,NE,6.9,-,N/A,,Overcast,50,2013-03-30 11:48:00
7:53 AM,42.1,39.9,92,30.22,1.5,NE,5.8,-,N/A,,Overcast,50,2013-03-30 11:53:00
8:28 AM,42.8,39.2,87,30.21,1.0,NE,6.9,-,N/A,,Overcast,40,2013-03-30 12:28:00
8:53 AM,43.0,39.9,89,30.22,1.0,NE,8.1,-,N/A,,Overcast,40,2013-03-30 12:53:00
8:58 AM,42.8,39.2,87,30.22,2.0,NE,8.1,-,N/A,,Overcast,40,2013-03-30 12:58:00
9:17 AM,42.8,41.0,93,30.21,2.0,NE,8.1,-,N/A,,Overcast,50,2013-03-30 13:17:00
9:53 AM,44.1,41.0,89,30.22,2.0,NE,6.9,-,N/A,,Overcast,50,2013-03-30 13:53:00
10:21 AM,44.6,42.8,93,30.21,3.0,NE,6.9,-,N/A,,Overcast,40,2013-03-30 14:21:00
10:53 AM,46.0,43.0,89,30.22,3.0,NNE,4.6,-,N/A,,Overcast,30,2013-03-30 14:53:00
11:34 AM,48.2,44.6,87,30.20,4.0,NNE,6.9,-,N/A,,Overcast,30,2013-03-30 15:34:00
11:53 AM,50.0,45.0,83,30.19,5.0,ENE,4.6,-,N/A,,Haze,70,2013-03-30 15:53:00
12:53 PM,53.1,46.0,77,30.17,7.0,Variable,3.5,-,N/A,,Scattered Clouds,0,2013-03-30 16:53:00
1:53 PM,55.9,44.1,64,30.15,7.0,Variable,3.5,-,N/A,,Clear,0,2013-03-30 17:53:00
2:53 PM,57.9,43.0,58,30.12,10.0,SSE,3.5,-,N/A,,Partly Cloudy,160,2013-03-30 18:53:00
3:53 PM,60.1,43.0,53,30.09,10.0,Calm,Calm,-,N/A,,Scattered Clouds,0,2013-03-30 19:53:00
4:53 PM,60.1,43.0,53,30.06,10.0,NW,3.5,-,N/A,,Overcast,320,2013-03-30 20:53:00
5:53 PM,59.0,43.0,55,30.05,10.0,NNW,3.5,-,N/A,,Overcast,330,2013-03-30 21:53:00
6:53 PM,59.0,43.0,55,30.05,10.0,Calm,Calm,-,N/A,,Overcast,0,2013-03-30 22:53:00
7:53 PM,55.0,44.1,67,30.03,10.0,ENE,3.5,-,N/A,,Mostly Cloudy,60,2013-03-30 23:53:00
8:53 PM,55.0,45.0,69,30.02,10.0,Calm,Calm,-,N/A,,Overcast,0,2013-03-31 00:53:00
9:53 PM,54.0,46.9,77,30.04,6.0,SW,5.8,-,0.01,Rain,Rain,230,2013-03-31 01:53:00
10:53 PM,52.0,48.9,89,30.03,6.0,Calm,Calm,-,0.07,Rain,Light Rain,0,2013-03-31 02:53:00
11:53 PM,51.1,48.9,92,30.00,3.0,Calm,Calm,-,0.05,Rain,Rain,0,2013-03-31 03:53:00